Regional Weather Roundup
Issued by NWS

Home | Current Version | Previous Version | Text Only | Print | Product List | Glossary Off
Versions: 1 2 3 4 5 6 7 8 9 10 11 12 13 14 15 16 17 18 19 20 21 22 23 24 25 26 27 28 29 30 31 32 33 34 35 36 37 38 39 40 41 42 43 44 45 46 47 48 49 50

000
ASUS43 KIND 302109
RWRIN

WEATHER ROUNDUP FOR INDIANA
NATIONAL WEATHER SERVICE INDIANAPOLIS IN
400 PM EST FRI JAN 30 2015

NOTE: "FAIR" INDICATES FEW OR NO CLOUDS BELOW 12,000 FEET WITH NO
SIGNIFICANT WEATHER AND/OR OBSTRUCTIONS TO VISIBILITY.

* - STATION DOES NOT REPORT WEATHER SUCH AS PRECIPITATION OR FOG.

+ - STATION NOT QUALITY CONTROLLED BY THE NATIONAL WEATHER SERVICE.
    USE DATA WITH CAUTION...ESPECIALLY DEWPOINT AND RELATIVE
    HUMIDITY OBSERVATIONS.

INZ001>003-010>013-019-020-302200-
NORTHWEST INDIANA

CITY           SKY/WX    TMP DP  RH WIND       PRES   REMARKS
GARY /AIRPORT/ MOSUNNY   30  10  43 CALM      30.47F
KNOX *+        MOSUNNY   28   0  29 NW7       30.46S WCI  21
LA PORTE +     MOSUNNY   27  16  63 N8        30.46F WCI  19
MICHIGAN CITY+ CLOUDY    28  10  47 N3        30.47F
MONTICELLO +   MOSUNNY   29  17  61 NW5       30.46F WCI  23
RENSSELAER +   SUNNY     30  19  64 NE3       30.47S
VALPARAISO     MOSUNNY   28  13  53 N6        30.45F WCI  22

$$

LMZ046-743>745-302200-
SOUTHERN LAKE MICHIGAN

STATION/POSITION TIME  TEMP WIND        PRES
                       AIR  DIR/SP/G
                 (UTC) (F)  (DEG/KT/KT) (MB)
MICHIGAN CITY    2100   27  320/  6/ 10   N/A

$$

INZ004-005-014>016-021>024-302200-
NORTH CENTRAL INDIANA

CITY           SKY/WX    TMP DP  RH WIND       PRES   REMARKS
ELKHART        CLOUDY    25  12  58 N7        30.45F WCI  17
GOSHEN         CLOUDY    25  14  63 NW12      30.44S WCI  14
LOGANSPORT +   MOSUNNY   30  18  59 NW6       30.46F WCI  24
PERU/GRISSOM   PTSUNNY   28  16  62 NW6       30.45R WCI  21
ROCHESTER +    MOSUNNY   30  19  64 NW6       30.46S WCI  24
SOUTH BEND     CLOUDY    26  15  63 NW9       30.45F WCI  17
WARSAW +       CLOUDY    27  16  63 N7        30.45S WCI  19

$$

INZ006>009-017-018-025>027-302200-
NORTHEAST INDIANA

CITY           SKY/WX    TMP DP  RH WIND       PRES   REMARKS
ANGOLA *+      SUNNY     23   9  54 NW7       30.42S WCI  15
AUBURN +       SUNNY     28  10  47 W8        30.44S WCI  20
FORT WAYNE     PTSUNNY   26  13  57 W12       30.45S WCI  16
HUNTINGTON +   PTSUNNY   25  10  53 NW8       30.45R WCI  16

$$

INZ028-029-035-036-043>045-051>053-302200-
WEST CENTRAL INDIANA

CITY           SKY/WX    TMP DP  RH WIND       PRES   REMARKS
GREENCASTLE +  SUNNY     32  12  43 CALM      30.46S
LAFAYETTE      MOSUNNY   30  17  58 NW5       30.47F WCI  25
TERRE HAUTE    SUNNY     35  14  42 VRB3      30.46F

$$

INZ030>032-037>040-046>048-054>057-064-065-302200-
CENTRAL INDIANA

CITY           SKY/WX    TMP DP  RH WIND       PRES   REMARKS
ANDERSON       MOSUNNY   27  14  59 N12G17    30.46R WCI  16
CP ATTERBURY + SUNNY     34  18  51 NW8       30.46S WCI  27
COLUMBUS       MOSUNNY   32  12  43 N8        30.46S WCI  25
FRANKFORT +    MOSUNNY   29  20  67 N7        30.47F WCI  22
GREENWOOD *+   SUNNY     32  12  43 NE3       30.45S
INDIANAPOLIS   MOSUNNY   30  15  53 N9        30.45S WCI  22
-EAGLE CREEK   SUNNY     31  16  54 N10       30.45R WCI  22
KOKOMO *+      CLOUDY    28  18  64 N7        30.46R WCI  21
MARION +       CLOUDY    26  15  64 N7        30.47R WCI  18
MT COMFORT *+  MOSUNNY   32   5  32 NW9       30.45S WCI  24
SHELBYVILLE    MOSUNNY   33  16  49 N10       30.45R WCI  25
ZIONSVILLE +   PTSUNNY   31  16  52 W7        30.46R WCI  25

$$

INZ033-034-041-042-049-050-058-059-302200-
EAST CENTRAL INDIANA

CITY           SKY/WX    TMP DP  RH WIND       PRES   REMARKS
MUNCIE         CLOUDY    27  16  63 NW10      30.45R WCI  17

$$

INZ060-061-067>069-081>083-085>088-302200-
SOUTHWEST INDIANA

CITY           SKY/WX    TMP DP  RH WIND       PRES   REMARKS
EVANSVILLE     SUNNY     40  22  48 N6        30.47S
HUNTINGBURG *+ SUNNY     37  19  48 NW8       30.47S
WASHINGTON +   SUNNY     36  13  38 N8        30.47S

$$

INZ062-063-066-070>080-084-089>092-302200-
SOUTH CENTRAL AND SOUTHEAST INDIANA

CITY           SKY/WX    TMP DP  RH WIND       PRES   REMARKS
BLOOMINGTON    SUNNY     36  15  42 VRB6      30.44S
NORTH VERNON + MOSUNNY   32  18  55 N7        30.46R WCI  26
SEYMOUR +      SUNNY     37  18  44 NE6       30.46R

$$



USA.gov is the U.S. government's official web portal to all federal, state and local government web resources and services.